| time (UTC) | temp C | wind direction | speed KPH | gust KPH | rain 1hr cm | rain 24hr cm | rain mn cm | humidity % | barometer mb |
| 20260505070037 | 9 | 243 | 0.0 | 0.0 | 0.05 | 0.51 | 0.00 | 95 | 1007.9 |
| 20260505064534 | 9 | 243 | 0.0 | 0.0 | 0.05 | 0.48 | 0.48 | 95 | 1007.9 |
| 20260505063044 | 9 | 243 | 0.0 | 0.0 | 0.03 | 0.46 | 0.46 | 95 | 1007.8 |
| 20260505061536 | 9 | 243 | 0.0 | 3.2 | 0.03 | 0.46 | 0.46 | 95 | 1007.9 |
| 20260505060033 | 9 | 243 | 0.0 | 0.0 | 0.00 | 0.43 | 0.43 | 95 | 1007.9 |
| 20260505054542 | 9 | 243 | 0.0 | 4.8 | 0.00 | 0.43 | 0.43 | 95 | 1007.8 |
| 20260505053031 | 9 | 243 | 0.0 | 4.8 | 0.00 | 0.43 | 0.43 | 95 | 1007.8 |
| 20260505051537 | 9 | 243 | 0.0 | 3.2 | 0.00 | 0.43 | 0.43 | 95 | 1007.9 |
| 20260505041542 | 10 | 243 | 0.0 | 1.6 | 0.00 | 0.43 | 0.43 | 95 | 1007.8 |
| 20260505040026 | 10 | 243 | 0.0 | 0.0 | 0.00 | 0.43 | 0.43 | 95 | 1007.7 |
| 20260505034525 | 10 | 243 | 0.0 | 0.0 | 0.00 | 0.43 | 0.43 | 95 | 1007.7 |
| 20260505033025 | 10 | 243 | 0.0 | 0.0 | 0.00 | 0.43 | 0.43 | 95 | 1007.5 |
| 20260505031529 | 10 | 243 | 0.0 | 0.0 | 0.00 | 0.43 | 0.43 | 95 | 1007.3 |
| 20260505030023 | 10 | 243 | 0.0 | 0.0 | 0.03 | 0.43 | 0.43 | 95 | 1007.1 |
| 20260505024522 | 10 | 243 | 0.0 | 0.0 | 0.03 | 0.43 | 0.43 | 95 | 1007.0 |
| 20260505023022 | 10 | 243 | 0.0 | 0.0 | 0.03 | 0.43 | 0.43 | 95 | 1007.0 |
| 20260505021522 | 10 | 243 | 0.0 | 0.0 | 0.03 | 0.43 | 0.43 | 95 | 1007.2 |
| 20260505020021 | 10 | 243 | 0.0 | 0.0 | 0.00 | 0.41 | 0.41 | 95 | 1007.3 |
| 20260505014522 | 10 | 243 | 0.0 | 0.0 | 0.00 | 0.41 | 0.41 | 94 | 1007.4 |
| 20260505013020 | 10 | 243 | 0.0 | 0.0 | 0.00 | 0.41 | 0.41 | 94 | 1007.5 |
| 20260505011518 | 11 | 243 | 0.0 | 0.0 | 0.00 | 0.41 | 0.41 | 94 | 1007.6 |
| 20260505010018 | 11 | 243 | 0.0 | 0.0 | 0.00 | 0.41 | 0.41 | 95 | 1007.7 |
| 20260505004518 | 11 | 243 | 0.0 | 3.2 | 0.00 | 0.41 | 0.41 | 94 | 1007.7 |
| 20260505003019 | 11 | 243 | 0.0 | 3.2 | 0.00 | 0.41 | 0.41 | 94 | 1007.6 |
| 20260505001517 | 10 | 243 | 0.0 | 3.2 | 0.00 | 0.41 | 0.41 | 94 | 1007.7 |
| 20260505000017 | 11 | 243 | 0.0 | 1.6 | 0.00 | 0.41 | 0.41 | 95 | 1007.6 |
| 20260504234515 | 10 | 243 | 0.0 | 0.0 | 0.00 | 0.41 | 0.41 | 94 | 1007.7 |
| 20260504233015 | 10 | 243 | 0.0 | 0.0 | 0.00 | 0.41 | 0.41 | 94 | 1007.8 |
| 20260504231514 | 10 | 243 | 0.0 | 3.2 | 0.00 | 0.41 | 0.41 | 94 | 1007.7 |
| 20260504230013 | 10 | 243 | 0.0 | 0.0 | 0.00 | 0.41 | 0.41 | 94 | 1007.8 |
| 20260504224522 | 10 | 243 | 0.0 | 1.6 | 0.03 | 0.41 | 0.41 | 94 | 1008.0 |
| 20260504223012 | 10 | 243 | 0.0 | 1.6 | 0.05 | 0.41 | 0.41 | 94 | 1008.2 |
| 20260504221511 | 10 | 243 | 0.0 | 0.0 | 0.08 | 0.41 | 0.41 | 94 | 1008.3 |
| 20260504220011 | 10 | 243 | 0.0 | 0.0 | 0.10 | 0.41 | 0.41 | 94 | 1008.3 |
| 20260504214510 | 10 | 243 | 0.0 | 1.6 | 0.08 | 0.38 | 0.38 | 94 | 1008.4 |
| 20260504213010 | 10 | 243 | 0.0 | 4.8 | 0.05 | 0.36 | 0.36 | 94 | 1008.3 |
| 20260504211509 | 10 | 243 | 0.0 | 1.6 | 0.03 | 0.33 | 0.33 | 94 | 1008.4 |
| 20260504210011 | 10 | 243 | 0.0 | 3.2 | 0.00 | 0.30 | 0.30 | 93 | 1008.3 |
| 20260504204511 | 10 | 243 | 0.0 | 3.2 | 0.00 | 0.30 | 0.30 | 93 | 1008.3 |
| 20260504203006 | 10 | 243 | 0.0 | 1.6 | 0.00 | 0.30 | 0.30 | 93 | 1008.1 |
| 20260504201507 | 10 | 243 | 0.0 | 3.2 | 0.00 | 0.30 | 0.30 | 93 | 1008.1 |
| 20260504200008 | 10 | 243 | 0.0 | 0.0 | 0.03 | 0.30 | 0.30 | 94 | 1008.1 |
| 20260504194508 | 10 | 243 | 0.0 | 1.6 | 0.03 | 0.30 | 0.30 | 93 | 1008.2 |
| 20260504193006 | 10 | 243 | 0.0 | 16.1 | 0.03 | 0.30 | 0.30 | 93 | 1007.9 |
| 20260504191503 | 10 | 256 | 1.6 | 6.4 | 0.03 | 0.30 | 0.30 | 93 | 1007.5 |
| 20260504190002 | 10 | 238 | 0.0 | 3.2 | 0.00 | 0.28 | 0.28 | 93 | 1007.8 |
| 20260504184503 | 10 | 237 | 0.0 | 3.2 | 0.00 | 0.28 | 0.28 | 93 | 1008.0 |
| 20260504183001 | 10 | 237 | 0.0 | 4.8 | 0.00 | 0.28 | 0.28 | 93 | 1007.9 |
| 20260504181603 | 9 | 331 | 0.0 | 6.4 | 0.00 | 0.28 | 0.28 | 93 | 1008.1 |
| 20260504180058 | 10 | 40 | 0.0 | 4.8 | 0.00 | 0.28 | 0.28 | 93 | 1008.0 |
| 20260504174557 | 10 | 250 | 0.0 | 3.2 | 0.03 | 0.28 | 0.28 | 93 | 1007.6 |
| 20260504173052 | 10 | 250 | 0.0 | 6.4 | 0.03 | 0.28 | 0.28 | 93 | 1007.5 |
| 20260504171548 | 10 | 332 | 0.0 | 6.4 | 0.03 | 0.28 | 0.28 | 93 | 1007.6 |
| 20260504081557 | 10 | 99 | 0.0 | 9.7 | 0.00 | 0.00 | 0.00 | 85 | 1006.1 |